User: anonymous   Login
Location: The Saddle
(36.8333°N, 80.3417°W)
Time: 21:45:46
(UTC-05:00)
Language:

Gurwin Techsat 1B - Orbit

View from above orbital plane
View from above orbital plane
View from above satellite
View from above satellite

Ground track
Ground track

The orbit data is extracted from the following two-line orbital elements,

1 25397U 98043D   24057.44881906  .00000194  00000-0  10444-3 0  9998
2 25397  98.9079  22.5917 0002275 106.9001 253.2427 14.23991900331515
Epoch (UTC): 26 February 2024 10:46:17
Eccentricity: 0.0002275
inclination: 98.9079°
perigee height: 810 km
apogee height: 813 km
right ascension of ascending node: 22.5917°
argument of perigee: 106.9001°
revolutions per day: 14.23991900
mean anomaly at epoch: 253.2427°
orbit number at epoch: 33151

The dashed part of the orbit path shows where the satellite is in the earth's shadow,  

DLR